GW5134 Weather Reports


Display with metric or nautical units.
time (UTC)temp
F
wind
direction
speed
MPH
gust
MPH
rain 1hr
in
rain 24hr
in
rain mn
in
humidity
%
barometer
mb
20260503214300 58 347 2.0 4.0 0.00 0.00 0.00 40 1018.0
20260503213758 58 328 0.0 7.0 0.00 0.00 0.00 38 1018.0
20260503213255 59 304 2.0 3.0 0.00 0.00 0.00 37 1018.0
20260503212752 57 294 3.0 4.0 0.00 0.00 0.00 34 1018.2
20260503212249 57 323 2.0 7.0 0.00 0.00 0.00 40 1018.2
20260503211747 57 265 5.0 11.0 0.00 0.00 0.00 37 1018.3
20260503211243 57 215 5.0 9.0 0.00 0.00 0.00 36 1018.2
20260503210738 59 333 0.0 4.0 0.00 0.00 0.00 34 1018.2
20260503210236 58 318 2.0 7.0 0.00 0.00 0.00 40 1018.4
20260503205731 57 6 4.0 7.0 0.00 0.00 0.00 35 1018.1
20260503205228 58 268 3.0 3.0 0.00 0.00 0.00 37 1018.5
20260503204724 58 322 5.0 8.0 0.00 0.00 0.00 37 1018.5
20260503204222 57 308 8.0 9.0 0.00 0.00 0.00 37 1018.6
20260503203719 58 333 1.0 7.0 0.00 0.00 0.00 40 1018.6
20260503203217 58 309 6.0 9.0 0.00 0.00 0.00 36 1018.6
20260503202714 58 316 2.0 4.0 0.00 0.00 0.00 38 1018.7
20260503202212 57 251 1.0 6.0 0.00 0.00 0.00 37 1018.9
20260503201709 57 310 2.0 3.0 0.00 0.00 0.00 40 1018.8
20260503201206 57 20 3.0 8.0 0.00 0.00 0.00 39 1018.9
20260503200703 57 261 6.0 10.0 0.00 0.00 0.00 38 1019.0
20260503200159 56 252 3.0 4.0 0.00 0.00 0.00 36 1019.2
20260503195656 56 219 5.0 7.0 0.00 0.00 0.00 40 1019.2
20260503195153 56 239 0.0 8.0 0.00 0.00 0.00 38 1019.6
20260503194650 57 274 2.0 8.0 0.00 0.00 0.00 38 1019.4
20260503194145 56 309 0.0 4.0 0.00 0.00 0.00 40 1019.5
20260503193642 57 320 4.0 15.0 0.00 0.00 0.00 36 1019.7
20260503193138 56 8 0.0 4.0 0.00 0.00 0.00 36 1019.6
20260503192634 56 200 11.0 11.0 0.00 0.00 0.00 39 1020.0
20260503192129 56 257 1.0 7.0 0.00 0.00 0.00 36 1019.7
20260503191626 56 239 6.0 10.0 0.00 0.00 0.00 43 1020.0
20260503191124 55 251 8.0 11.0 0.00 0.00 0.00 40 1020.2
20260503190620 56 227 8.0 15.0 0.00 0.00 0.00 40 1020.0
20260503190117 56 209 0.0 3.0 0.00 0.00 0.00 38 1020.0
20260503185614 56 324 5.0 8.0 0.00 0.00 0.00 41 1020.3
20260503185114 55 330 1.0 13.0 0.00 0.00 0.00 41 1020.2
20260503184609 54 306 6.0 8.0 0.00 0.00 0.00 43 1020.3
20260503184106 55 195 9.0 10.0 0.00 0.00 0.00 43 1020.3
20260503183603 55 206 3.0 7.0 0.00 0.00 0.00 42 1020.3
20260503183100 55 67 0.0 3.0 0.00 0.00 0.00 35 1020.3
20260503182558 55 268 1.0 8.0 0.00 0.00 0.00 36 1020.4
20260503182056 55 288 4.0 7.0 0.00 0.00 0.00 46 1020.7
20260503181553 55 271 5.0 10.0 0.00 0.00 0.00 37 1020.5
20260503181049 55 235 5.0 8.0 0.00 0.00 0.00 41 1020.6
20260503180547 54 14 4.0 6.0 0.00 0.00 0.00 39 1020.5
20260503180044 53 240 3.0 4.0 0.00 0.00 0.00 46 1020.8
20260503175541 53 5 0.0 2.0 0.00 0.00 0.00 44 1020.8
20260503175038 52 73 4.0 7.0 0.00 0.00 0.00 41 1020.8
20260503174536 52 227 6.0 16.0 0.00 0.00 0.00 44 1020.8
20260503174032 52 211 7.0 8.0 0.00 0.00 0.00 45 1020.7
20260503173527 53 122 2.0 8.0 0.00 0.00 0.00 42 1021.0
20260503173023 53 252 8.0 13.0 0.00 0.00 0.00 44 1021.2
20260503172521 53 214 13.0 15.0 0.00 0.00 0.00 46 1021.0
20260503172018 53 216 6.0 8.0 0.00 0.00 0.00 51 1021.1
20260503171514 53 249 0.0 6.0 0.00 0.00 0.00 49 1021.3
20260503171012 52 316 4.0 11.0 0.00 0.00 0.00 49 1021.3
20260503170508 52 300 5.0 10.0 0.00 0.00 0.00 50 1021.3
20260503150900 48 347 6.0 8.0 0.00 0.00 0.00 57 1022.1
20260503150356 47 277 8.0 11.0 0.00 0.00 0.00 55 1022.3
20260503131250 42 111 0.0 3.0 0.00 0.00 0.00 72 1022.2
20260503130748 42 217 2.0 3.0 0.00 0.00 0.00 71 1022.2
20260503130245 41 240 0.0 2.0 0.00 0.00 0.00 73 1022.2
20260503120211 34 210 0.0 2.0 0.00 0.00 0.00 93 1022.1
20260503110638 29 243 0.0 0.0 0.00 0.00 0.00 94 1021.3
20260503110136 29 264 0.0 0.0 0.00 0.00 0.00 93 1021.2
20260503081452 31 322 0.0 0.0 0.00 0.00 0.00 92 1020.1
20260503080949 31 322 0.0 0.0 0.00 0.00 0.00 91 1020.1
20260503080445 32 321 0.0 0.0 0.00 0.00 0.00 91 1020.1
20260503072921 33 338 0.0 0.0 0.00 0.00 0.00 91 1019.6
20260503072419 34 325 0.0 0.0 0.00 0.00 0.00 91 1019.5
20260503071916 34 331 0.0 0.0 0.00 0.00 0.00 91 1019.5
20260503071413 35 323 0.0 0.0 0.00 0.00 0.00 91 1019.5
20260503070909 35 306 0.0 0.0 0.00 0.00 0.00 91 1019.4
20260503070406 35 303 0.0 0.0 0.00 0.00 0.00 91 1019.4
20260503060332 33 326 0.0 0.0 0.00 0.00 0.00 90 1019.5
20260503054820 32 322 0.0 0.0 0.00 0.00 0.00 90 1019.4
20260503054315 32 322 0.0 0.0 0.00 0.00 0.00 89 1019.7
20260503053814 32 322 0.0 0.0 0.00 0.00 0.00 89 1019.5
20260503053312 32 321 0.0 0.0 0.00 0.00 0.00 89 1019.4
20260503052808 32 316 0.0 0.0 0.00 0.00 0.00 89 1019.4
20260503052305 32 320 0.0 0.0 0.00 0.00 0.00 89 1019.5
20260503051800 33 312 0.0 0.0 0.00 0.00 0.00 88 1019.4
20260503051257 33 312 0.0 0.0 0.00 0.00 0.00 88 1019.2
20260503050754 32 312 0.0 0.0 0.00 0.00 0.00 88 1019.4
20260503050250 32 313 0.0 0.0 0.00 0.00 0.00 88 1019.3
20260503045748 33 312 0.0 0.0 0.00 0.00 0.00 87 1019.4
20260503045246 33 314 0.0 0.0 0.00 0.00 0.00 87 1019.4
20260503044741 33 337 0.0 0.0 0.00 0.00 0.00 87 1019.1
20260503044239 33 340 0.0 0.0 0.00 0.00 0.00 86 1019.2
20260503043736 34 341 0.0 0.0 0.00 0.00 0.00 86 1019.3
20260503043233 34 353 0.0 0.0 0.00 0.00 0.00 85 1019.3
20260503042729 34 353 0.0 0.0 0.00 0.00 0.00 85 1019.3
20260503042226 34 352 0.0 0.0 0.00 0.00 0.00 85 1019.4
20260503041722 34 352 0.0 0.0 0.00 0.00 0.00 85 1019.2
20260503041220 35 352 0.0 0.0 0.00 0.00 0.00 84 1019.1
20260503040717 35 352 0.0 0.0 0.00 0.00 0.00 84 1019.5
20260503040215 35 355 0.0 0.0 0.00 0.00 0.00 83 1019.3
20260503035711 35 353 0.0 0.0 0.00 0.00 0.00 82 1019.3
20260503035209 36 350 0.0 0.0 0.00 0.00 0.00 82 1019.4
20260503034706 36 0 0.0 0.0 0.00 0.00 0.00 81 1019.3
20260503034203 37 341 0.0 0.0 0.00 0.00 0.00 81 1019.4
20260503033700 37 345 0.0 0.0 0.00 0.00 0.00 80 1019.4
20260503033158 37 337 0.0 0.0 0.00 0.00 0.00 80 1019.4
20260503032655 37 340 0.0 0.0 0.00 0.00 0.00 80 1019.3
20260503032154 38 338 0.0 0.0 0.00 0.00 0.00 79 1019.4
20260503031651 38 330 0.0 0.0 0.00 0.00 0.00 78 1019.3
20260503031149 39 327 0.0 0.0 0.00 0.00 0.00 78 1019.5
20260503030644 39 337 0.0 0.0 0.00 0.00 0.00 77 1019.4
20260503030142 40 335 0.0 0.0 0.00 0.00 0.00 74 1019.2
20260503025638 40 308 0.0 0.0 0.00 0.00 0.00 73 1019.2
20260503025136 40 311 0.0 0.0 0.00 0.00 0.00 74 1019.4
20260503024632 40 308 1.0 2.0 0.00 0.00 0.00 71 1019.2
20260503024130 40 312 0.0 0.0 0.00 0.00 0.00 73 1019.2
20260503023627 40 311 0.0 3.0 0.00 0.00 0.00 71 1019.2
20260503023124 41 289 0.0 0.0 0.00 0.00 0.00 70 1019.3
20260503022619 41 307 1.0 2.0 0.00 0.00 0.00 68 1019.2
20260503022114 41 294 0.0 1.0 0.00 0.00 0.00 68 1019.3
20260503021611 42 312 0.0 1.0 0.00 0.00 0.00 70 1019.0
20260503021108 42 305 1.0 3.0 0.00 0.00 0.00 67 1019.3
20260503020605 42 287 1.0 4.0 0.00 0.00 0.00 68 1019.1
20260503015559 42 307 3.0 4.0 0.00 0.00 0.00 67 1019.2
20260503015056 42 303 2.0 4.0 0.00 0.00 0.00 67 1019.1
20260503014552 42 317 2.0 3.0 0.00 0.00 0.00 67 1018.9
20260503014050 42 320 2.0 2.0 0.00 0.00 0.00 68 1018.8
20260503013547 42 307 0.0 1.0 0.00 0.00 0.00 68 1018.8
20260503013045 42 306 0.0 1.0 0.00 0.00 0.00 69 1019.0
20260503012542 42 310 1.0 2.0 0.00 0.00 0.00 66 1018.9
20260503012038 42 317 0.0 0.0 0.00 0.00 0.00 69 1018.8
20260503011535 43 316 0.0 0.0 0.00 0.00 0.00 66 1018.5
20260503011032 43 304 1.0 1.0 0.00 0.00 0.00 65 1018.5
20260503010528 44 313 1.0 3.0 0.00 0.00 0.00 65 1018.5
20260503010026 44 313 2.0 3.0 0.00 0.00 0.00 63 1018.5
20260503005523 44 333 4.0 4.0 0.00 0.00 0.00 64 1018.5
20260503005020 44 310 4.0 6.0 0.00 0.00 0.00 61 1018.5
20260503004516 44 317 3.0 3.0 0.00 0.00 0.00 59 1018.3
20260503004015 45 311 3.0 7.0 0.00 0.00 0.00 59 1018.2
20260503003511 45 309 3.0 7.0 0.00 0.00 0.00 59 1018.1
20260503003008 45 314 5.0 7.0 0.00 0.00 0.00 58 1018.0
20260503002505 45 299 2.0 9.0 0.00 0.00 0.00 57 1018.0
20260503002001 45 285 4.0 6.0 0.00 0.00 0.00 57 1018.0
20260503001458 46 304 4.0 8.0 0.00 0.00 0.00 57 1017.9
20260503000956 46 320 6.0 7.0 0.00 0.00 0.00 56 1017.8
20260503000453 46 324 2.0 6.0 0.00 0.00 0.00 55 1017.9
20260502235950 46 303 3.0 4.0 0.00 0.00 0.00 56 1017.7
20260502235446 46 298 4.0 10.0 0.00 0.00 0.00 55 1017.8
20260502234944 46 354 4.0 6.0 0.00 0.00 0.00 56 1017.6
20260502234440 47 286 5.0 8.0 0.00 0.00 0.00 54 1017.4
20260502233938 47 313 3.0 8.0 0.00 0.00 0.00 54 1017.4
20260502233433 47 286 5.0 8.0 0.00 0.00 0.00 52 1017.3
20260502232930 47 325 3.0 8.0 0.00 0.00 0.00 51 1017.4
20260502232427 47 321 5.0 6.0 0.00 0.00 0.00 50 1017.2
20260502231924 48 303 6.0 7.0 0.00 0.00 0.00 48 1017.1
20260502231421 48 307 6.0 9.0 0.00 0.00 0.00 50 1017.0
20260502230919 48 257 4.0 6.0 0.00 0.00 0.00 46 1016.9
20260502230417 48 323 1.0 6.0 0.00 0.00 0.00 50 1017.1
20260502225915 48 319 3.0 6.0 0.00 0.00 0.00 49 1016.9
20260502225410 49 311 6.0 9.0 0.00 0.00 0.00 47 1016.8
20260502224907 48 312 6.0 7.0 0.00 0.00 0.00 48 1016.8
20260502224403 49 350 6.0 10.0 0.00 0.00 0.00 49 1016.8
20260502223900 49 316 3.0 3.0 0.00 0.00 0.00 49 1016.8
20260502223358 49 316 3.0 3.0 0.00 0.00 0.00 49 1016.8
20260502222855 49 317 2.0 6.0 0.00 0.00 0.00 47 1016.7
20260502222348 50 329 2.0 6.0 0.00 0.00 0.00 47 1016.8
20260502221843 50 289 2.0 4.0 0.00 0.00 0.00 49 1016.8
20260502221340 49 247 3.0 6.0 0.00 0.00 0.00 48 1017.0
20260502220837 49 312 1.0 3.0 0.00 0.00 0.00 47 1016.8
20260502220333 49 342 4.0 6.0 0.00 0.00 0.00 48 1016.6
20260502215829 49 318 1.0 4.0 0.00 0.00 0.00 47 1016.6
20260502215327 50 298 4.0 7.0 0.00 0.00 0.00 45 1016.7
20260502214824 50 333 2.0 4.0 0.00 0.00 0.00 48 1016.7